Weather History for Jordan, MT

Change the Weather History Date:

Monday, December 9, 2013

  Actual Average Record
Temperature  
Mean Temperature -2 °F 20 °F  
Max Temperature 24 °F 33 °F 63 °F (1957)
Min Temperature -28 °F 7 °F -37 °F (1972)
Degree Days  
Heating Degree Days 67 45  
Month to date heating degree days 593 392  
Since 1 July heating degree days 2530 2410  
Cooling Degree Days 0 0  
Month to date cooling degree days 0 0  
Year to date cooling degree days 520 421  
Moisture  
Dew Point 0 °F    
Average Humidity 73    
Maximum Humidity 84    
Minimum Humidity 61    
Precipitation  
Precipitation 0.05 in 0.01 in 0.40 in (1989)
Month to date precipitation 0.64 0.08  
Year to date precipitation 16.99 12.46  
Snow  
Snow 0.00 in - - ()
Month to date snowfall 0.0  
Since 1 July snowfall 0.0  
Snow Depth 0.00 in    
Sea Level Pressure  
Sea Level Pressure 30.08 in    
Wind  
Wind Speed 14 mph (WNW)    
Max Wind Speed 36 mph    
Max Gust Speed 45 mph    
T = Trace of Precipitation, MM = Missing Value Source: NWS Daily Summary

Daily Weather History Graph

Daily Weather History Graph

Search for Another Location

Airport:

Trip Planner

Search our weather history database for the weather conditions in past years. The results will help you decide how hot, cold, wet, or windy it might be!

Date:

Astronomy

Dec. 09, 2013 Rise Set
Actual Time 7:43 AM MST 4:17 PM MST
Civil Twilight 7:07 AM MST 4:52 PM MST
Nautical Twilight 6:28 AM MST 5:31 PM MST
Astronomical Twilight 5:51 AM MST 6:08 PM MST
Moon 12:13 PM MST (12/9) No Moon Set
Length of Visible Light 9h 45m
Length of Day
8h 34m
First Quarter, 52% of the Moon is Illuminated
Dec 9
First Quarter
Dec 17
Full
Dec 25
Last Quarter
Jan 1
New
Jan 7
First Quarter

Hourly Weather History & Observations

Time (MST) Temp. Windchill Dew Point Humidity Pressure Visibility Wind Dir Wind Speed Gust Speed Precip Events Conditions
12:48 AM -20.9 °F -36.4 °F -26.0 °F 77% 30.30 in - WNW 5.8 mph - N/A   Unknown
1:48 AM -23.1 °F - -27.9 °F 78% 30.28 in - Calm Calm - N/A   Unknown
2:48 AM -25.1 °F -36.5 °F -29.9 °F 78% 30.25 in - West 3.5 mph - N/A   Unknown
3:48 AM -26.0 °F -40.2 °F -29.9 °F 81% 30.21 in - West 4.6 mph - N/A   Unknown
4:48 AM -14.1 °F - -18.9 °F 79% 30.16 in - Calm Calm - N/A   Unknown
5:48 AM -9.9 °F -24.9 °F -16.1 °F 74% 30.10 in - WNW 6.9 mph - N/A   Unknown
6:48 AM -9.9 °F -24.9 °F -16.1 °F 74% 30.06 in - West 6.9 mph - N/A   Unknown
7:48 AM -0.9 °F -14.1 °F -8.0 °F 72% 30.03 in - WNW 6.9 mph - N/A   Unknown
8:48 AM 8.1 °F -8.4 °F -2.0 °F 64% 29.99 in - WSW 13.8 mph - N/A   Unknown
9:48 AM 12.9 °F -4.9 °F 1.9 °F 62% 29.92 in - WSW 19.6 mph - N/A   Unknown
10:48 AM 16.0 °F 0.1 °F 10.9 °F 81% 29.94 in - West 17.3 mph - 0.01 in   Unknown
11:48 AM 18.0 °F -0.2 °F 12.9 °F 81% 29.94 in - West 25.3 mph 34.5 mph 0.01 in   Unknown
12:48 PM 21.0 °F 5.0 °F 14.0 °F 74% 29.95 in - West 21.9 mph 33.4 mph 0.02 in   Unknown
1:48 PM 24.1 °F 6.9 °F 17.1 °F 75% 29.96 in - WNW 29.9 mph 35.7 mph N/A   Unknown
2:48 PM 23.0 °F 4.9 °F 16.0 °F 74% 30.00 in - NW 32.2 mph 43.7 mph N/A   Unknown
3:48 PM 21.0 °F 4.3 °F 18.0 °F 88% 30.06 in - NW 24.2 mph 34.5 mph N/A   Unknown
4:48 PM 19.9 °F 1.0 °F 14.0 °F 78% 30.09 in - NW 31.1 mph - 0.01 in   Unknown
5:48 PM 18.0 °F -0.5 °F 12.9 °F 81% 30.12 in - NW 26.5 mph 33.4 mph N/A   Unknown
6:48 PM 18.0 °F 0.9 °F 10.0 °F 71% 30.14 in - NNW 21.9 mph - N/A   Unknown
7:48 PM 16.0 °F 3.6 °F 9.0 °F 74% 30.14 in - WNW 10.4 mph - N/A   Unknown
8:48 PM 17.1 °F 6.6 °F 10.9 °F 77% 30.12 in - West 8.1 mph - N/A   Unknown
9:48 PM 17.1 °F 8.7 °F 12.9 °F 84% 30.09 in - WSW 5.8 mph - N/A   Unknown
10:48 PM 18.0 °F 11.1 °F 12.9 °F 81% 30.08 in - West 4.6 mph - N/A   Unknown
11:48 PM 12.0 °F 0.5 °F 8.1 °F 84% 30.06 in - SSW 8.1 mph - N/A   Unknown